Simultaneous Nadir Overpasses (SNOs) Predictions

Prediction of SNOs between GOES-17 and METOP-C Satellite Orbit:

Table of predicted SNOs for the next 14.0 days since TLE Epoch: 11/6/2021
Index Date Time (GOES-17) GOES-17 Lat,Lon METOP-C Lat,Lon Distance(km) Time Diff (sec)
1 11/06/2021 18:25:58 -0.05,-137.21 -0.85,-133.52 419.54 80
2 11/08/2021 06:44:58 0.04,-137.20 -0.17,-138.11 104.67 80
3 11/09/2021 06:21:40 0.04,-137.19 0.97,-133.13 463.69 80
4 11/10/2021 18:40:32 -0.03,-137.18 0.09,-137.68 57.66 80
5 11/13/2021 06:41:33 0.02,-137.15 -0.00,-137.28 14.11 80
6 11/15/2021 18:39:47 -0.02,-137.12 -0.08,-136.84 32.20 80
7 11/17/2021 06:58:46 0.02,-137.11 -0.97,-141.43 492.81 80
8 11/18/2021 06:35:28 0.02,-137.09 0.18,-136.44 74.85 80
9 11/19/2021 18:54:20 -0.01,-137.07 0.89,-140.99 448.02 80
